Regional Weather Roundup
Issued by NWS State College, PA

Home | Current Version | Previous Version | Text Only | Print | Product List | Glossary On
Versions: 1 2 3 4 5 6 7 8 9 10 11 12 13 14 15 16 17 18 19 20 21 22 23 24 25 26 27 28 29 30 31 32 33 34 35 36 37 38 39 40 41 42 43 44 45 46 47 48 49 50
000
ASUS41 KCTP 180910
RWRCTP

REGIONAL WEATHER ROUNDUP
NATIONAL WEATHER SERVICE STATE COLLEGE PA
400 AM EST THU DEC 18 2014

Note: "fair" indicates few or no clouds below 12,000 feet with no
significant weather and/or obstructions to visibility.

* = STATION THAT DOES NOT REPORT PRECIPITATION /E.G. RAIN...SNOW...ETC/
    THUNDER OR FOG.

PAZ002>004-007>009-013>016-020>023-029>032-181000-
WESTERN PENNSYLVANIA

CITY           SKY/WX    TMP DP  RH WIND       PRES   REMARKS
ERIE           CLOUDY    31  22  69 W14G23    30.13S
MEADVILLE      CLOUDY    27  22  81 W8        30.11S
FRANKLIN*      CLOUDY    27  19  74 W8G17     30.11F
NEW CASTLE     FLURRIES  27  21  77 W8        30.18S
BEAVER COUNTY  NOT AVBL
BUTLER*        CLOUDY    27  19  74 W10G17    30.16S
PITTSBURGH INT FLURRIES  28  19  69 W13       30.16S
PITTSBURGH     CLOUDY    27  17  66 W6        30.15S
INDIANA*       CLOUDY    28  21  74 W8G21     30.16R HAZE
LATROBE        NOT AVBL
WASHINGTON CO* CLOUDY    27  18  69 W8        30.19F
$$

PAZ004>006-010>012-017>019-024>028-033>037-041-042-045-046-049>053-181000-
CENTRAL PENNSYLVANIA

CITY           SKY/WX    TMP DP  RH WIND       PRES   REMARKS
BRADFORD       MIX PCPN  25  19  78 W14G25    30.00S WCI  13
DUBOIS         LGT SNOW  25  21  85 W14       30.05S FOG     WCI  13
CLEARFIELD     CLOUDY    27  20  75 W15G21    30.06S
JOHNSTOWN      CLOUDY    23  16  74 W14       30.04S WCI  11
ALTOONA        CLOUDY    28  19  69 W20G29    30.08R WCI  15
STATE COLLEGE  CLOUDY    29  20  68 W13G21    30.06S
WILLIAMSPORT   CLOUDY    34  22  61 W14       30.02S
SELINSGROVE    CLOUDY    34  20  56 W9G18     30.05F
FT INDIANTOWN  CLOUDY    34  17  49 W10G23    30.03S
CAPITAL CITY   CLOUDY    35  17  47 NW18G28   30.06S
HARRISBURG     MOCLDY    35  16  45 NW25G31   30.05S
YORK           CLOUDY    35  20  54 W12G22    30.05S
$$

PAZ038>040-043-044-047-048-054-055-060>062-067>071-181000-
EASTERN PENNSYLVANIA

CITY           SKY/WX    TMP DP  RH WIND       PRES   REMARKS
SCRANTON       MOCLDY    34  21  59 W15       29.95F
MOUNT POCONO   CLOUDY    29  20  69 NW12      29.88R
ALLENTOWN      CLEAR     34  21  59 W13G22    29.97R
QUAKERTOWN*    MOSUNNY   32  21  64 W9        29.97F
READING        CLEAR     33  18  53 NW13      30.01S
LANCASTER      CLEAR     33  17  51 W22G30    30.02F
COATESVILLE    SUNNY     32  19  59 NW18G24   30.00S
POTTSTOWN      CLEAR     32  19  58 NW9       30.01R
BLUE BELL      CLEAR     36  23  60 W6        29.98S
DOYLESTOWN     CLEAR     33  21  61 W9G17     29.97R
WILLOW GROVE   NOT AVBL
NORTH PHILA    CLEAR     36  20  52 NW13G23   30.00S
PHILADELPHIA   CLEAR     36  19  50 W14       30.02S
$$



USA.gov is the U.S. government's official web portal to all federal, state and local government web resources and services.